This demonstration page uses our WeatherBlox Daily Observations layout. Learn more.

Left ArrowRight Arrow

Hourly Observations for September 30, 2022

Temp ( °F °C ) Dew Point ( °F °C ) Humidity (%) Winds ( mph kmh ) Pressure ( in mb ) Visibility ( mi km ) Precip ( " mm )
12:59 am 00:59 Cloudy 65 18.3 55 12.8 70 70 NNE 17 28 30.18 1022 10 16 0.00 0.00
1:59 am 01:59 Cloudy 66 18.9 57 13.9 73 73 NE 16 26 30.14 1021 10 16 0.00 0.00
2:59 am 02:59 Cloudy 67 19.4 58 14.4 73 73 NE 21 33 30.13 1020 10 16 0.00 0.00
3:59 am 03:59 Cloudy 67 19.4 59 15 76 76 NE 22 35 30.11 1020 10 16 0.00 0.00
4:59 am 04:59 Cloudy with Light Rain 66 18.9 60 15.6 81 81 NE 21 33 30.12 1020 6 10 0.01 0.25
5:59 am 05:59 Cloudy with Light Rain 66 18.9 61 16.1 84 84 NE 21 33 30.10 1019 6 10 0.03 0.76
6:59 am 06:59 Cloudy with Light Rain 66 18.9 61 16.1 84 84 NE 24 39 30.10 1019 6 10 0.02 0.51
7:32 am 07:32 Cloudy with Light Rain 65 18.3 61 16.1 87 87 ENE 25 41 30.10 1019 6 10 0.06 1.52
7:59 am 07:59 Cloudy with Light Rain 65 18.3 61 16.1 87 87 NE 23 37 30.10 1019 6 10 0.09 2.29
8:59 am 08:59 Cloudy with Light Rain 66 18.9 62 16.7 87 87 NE 18 30 30.09 1019 6 10 0.05 1.27
9:59 am 09:59 Cloudy with Light Rain 66 18.9 62 16.7 87 87 NE 18 30 30.08 1019 6 10 0.01 0.25
10:35 am 10:35 Cloudy with Rain 66 18.9 62 16.7 87 87 NE 23 37 30.08 1019 2 3 0.06 1.52
10:59 am 10:59 Cloudy with Rain 65 18.3 62 16.7 90 90 NE 22 35 30.06 1018 2 3 0.15 3.81
11:59 am 11:59 Cloudy with Rain 65 18.3 62 16.7 90 90 NE 32 52 30.03 1017 1 2 0.20 5.08
12:59 pm 12:59 Cloudy with Rain 66 18.9 62 16.7 87 87 NE 28 44 30.01 1016 1 2 0.22 5.59
1:59 pm 13:59 Cloudy with Light Rain 66 18.9 62 16.7 87 87 NE 25 41 29.97 1015 1 2 0.18 4.57
2:59 pm 14:59 Cloudy with Rain 66 18.9 63 17.2 90 90 NE 28 44 29.93 1014 1 1 0.36 9.14
3:59 pm 15:59 Cloudy with Rain 66 18.9 63 17.2 90 90 NE 29 46 29.89 1012 1 2 0.29 7.37
4:59 pm 16:59 Cloudy with Light Rain 66 18.9 63 17.2 90 90 NE 26 43 29.87 1011 2 3 0.20 5.08
5:59 pm 17:59 Cloudy with Rain 66 18.9 63 17.2 90 90 NE 30 48 29.83 1010 2 3 0.11 2.79
6:31 pm 18:31 Cloudy with Light Rain 66 18.9 63 17.2 90 90 ENE 29 46 29.80 1009 3 5 0.01 0.25
6:59 pm 18:59 Cloudy with Light Rain 67 19.4 63 17.2 87 87 ENE 23 37 29.80 1009 3 5 0.03 0.76
7:19 pm 19:19 Cloudy with Light Rain 67 19.4 63 17.2 87 87 ENE 28 44 29.80 1009 3 4 0.06 1.52
7:26 pm 19:26 Cloudy with Light Rain 67 19.4 63 17.2 87 87 ENE 32 52 29.78 1008 3 5 0.06 1.52
7:46 pm 19:46 Cloudy with Heavy Rain 67 19.4 64 17.8 90 90 ENE 26 43 29.78 1008 2 3 0.14 3.56
7:59 pm 19:59 Cloudy with Light Rain 67 19.4 64 17.8 90 90 ENE 33 54 29.78 1008 3 4 0.17 4.32
8:19 pm 20:19 Cloudy with Light Rain 67 19.4 64 17.8 90 90 E 26 43 29.79 1009 4 6 0.04 1.02
8:59 pm 20:59 Cloudy with Light Rain 68 20 64 17.8 87 87 ENE 33 54 29.78 1009 4 6 0.11 2.79
9:19 pm 21:19 Cloudy with Thunderstorms 68 20 65 18.3 90 90 ENE 29 46 29.78 1008 4 6 0.04 1.02
9:59 pm 21:59 Cloudy with Light Rain 68 20 65 18.3 90 90 ENE 24 39 29.78 1008 3 5 0.21 5.33
10:30 pm 22:30 Cloudy with Light Rain 69 20.6 66 18.9 90 90 E 23 37 29.76 1008 3 4 0.08 2.03
10:59 pm 22:59 Cloudy with Rain 69 20.6 66 18.9 90 90 ENE 28 44 29.74 1007 4 6 0.14 3.56
11:59 pm 23:59 Cloudy with Mist and Fog 72 22.2 69 20.6 91 91 E 12 19 29.75 1007 4 6 0.06 1.52

Powered by AerisWeather